Tracking 17145 objects as of 23-May-2015
HD Live streaming from Space Station

DELTA 2 DEB

Track DELTA 2 DEB now!
DELTA 2 DEB is classified as:


NORAD ID: 28549
Int'l Code: 2000-017E
Perigee: 635.5 km
Apogee: 46,145.6 km
Inclination: 92.2 °
Period: 851.6 minutes
Semi major axis: 29761 km
RCS: 0.1719 m2 (medium)
Launch date: March 25, 2000
Source: United States (US)

Note: This is SATELLITE DEBRIS
Your satellite tracking list
Your tracking list is empty





NASA's NSSDC Master Catalog

Two Line Element Set (TLE):
1 28549U 00017E   07333.57804209 -.00000276  00000-0 -34897-2 0  9997
2 28549 092.1535 206.6051 7645773 351.5622 003.7220 01.69090605 22732

Source of the keplerian elements: AFSPC

N2YO: 354